Battista Vennera

C.U.S. CAMERINO
03-06-1979


Informazioni sul tesseramento aggiornate al 2020


Condividi con
Seguici su:


400 metri

Anno Data Tipo Cr. Cat. Piazz. Prestaz. Vento Città  
201413/09PESM351 se- 2 57.81Ancona
 

800 metri

Anno Data Tipo Cr. Cat. Piazz. Prestaz. Vento Città  
200618/06PESM5 se- 2 1:59.52Fabriano
200707/07PESM2 se- 2 1:59.54Macerata
201320/06PESM7 se- 1 1:59.77Sasso Marconi
200719/07PESM4 se- 2 1:59.88Bologna
200819/07PESM7 se- 3 1:59.95Civitanova Marche
200710/06PESM3 se- 2 2:00.25Riese Pio X
200528/08PESM2 se- 1 2:00.42Montecassiano
200913/09PESM4 se- 1 2:00.71Fermo
201009/07PESM6 su- 1 2:01.04Teramo
201321/07PESM6 se- 2 2:01.16Fermo
200909/09PESM9 se- 1 2:01.39Serravalle
200616/07PESM5 se- 1 2:01.52Fabriano
201406/09PESM358 se- 3 2:01.67Macerata
201029/08PESM7 se- 2 2:01.76Montecassiano
201311/06PESM5 se- 1 2:01.77Cesena
200515/05PESM2 se- 3 2:02.08Montecassiano
200722/07PESM6 se- 1 2:02.11Fano
201505/07PESM353 su- 1 2:02.18Cassino
201703/08PESM354 ba- 1 2:02.31Aarhus
200604/06PESM3 ba- 1 2:02.72Terni
200511/09PESM5 se- 1 2:02.85Perugia
201008/09PESM2 su- 1 2:02.96Misano Adriatico
201312/05PESM2 se- 2 2:03.15Macerata
200923/07PESM7 se- 1 2:03.45Fermo
201429/06PESM356 se- 3 2:03.49Ancona
200803/05PESM1 se- 2 2:03.61Scorze
200727/06PESM11 se- 3 2:03.87San Marino
201406/07PESM353 se- 2 2:03.92Modena
201012/09PESM5 se- 1 2:04.15Fermo
201501/03IESM354 se- 2 2:04.72Ancona
201705/08PESM3511 fi- 1 2:05.07Aarhus
200531/07PESM8 se- 1 2:05.51Civitanova Marche
201709/07PESM351 se- 1 2:05.88Orvieto
201412/07PESM351 su- 1 2:11.06Bastia Umbra
201324/08PESM11 su- 1 2:25.62Camerino
 

1500 metri

Anno Data Tipo Cr. Cat. Piazz. Prestaz. Vento Città  
200913/06PESM5 se- 1 4:00.31Porto San Elpidio
200831/07PESM5 se- 1 4:01.26Nereto
200919/07PESM2 se- 1 4:02.19Recanati
201527/06PESM354 se- 1 4:02.66Ancona
200622/07PESM3 se- 1 4:02.73Giulianova
200901/05PESM3 se- 1 4:03.96Padova
200601/07PESM5 su- 1 4:04.12Recanati
201018/07PESM5 se- 1 4:04.27Recanati
200827/07PESM8 su- 1 4:04.40Recanati
201609/07PESM351 su- 1 4:04.41Arezzo
200820/09PESM4 su- 1 4:04.59Padova
201015/07PESM5 se- 1 4:04.71Bologna
200730/06PESM3 se- 2 4:05.18Recanati
200825/07PESM2 su- 1 4:05.18Camerino
201506/06PESM354 se- 1 4:05.27Fermo
201311/05PESM4 se- 1 4:05.46Macerata
200801/05PESM3 se- 1 4:05.83Padova
200915/07PESM2 se- 1 4:06.01Fermo
200629/07PMSM3 su- 1 4:06.2Ascoli Piceno
200714/07PESM3 se- 1 4:06.41Fano
201509/05PESM355 se- 1 4:06.73Macerata
200610/06PESM4 se- 1 4:06.89Camerino
200714/04PESM4 se- 1 4:07.84Piombino Dese
200805/06PMSM6 se- 1 4:08.0Ferrara
200828/06PESM4 se- 1 4:08.32Porto Sant Elpidio
200622/04PESM4 se- 1 4:08.34Ascoli Piceno
201514/08PESM3511 fi- 1 4:08.65Lyon
201418/06PESM354 su- 1 4:08.77Serravalle
201714/06PESM355 se- 2 4:08.77Serravalle
200821/06PESM1 su- 1 4:09.06San Giovanni Lupatoto
201730/07PESM359 fi- 1 4:09.13Aarhus
201510/06PESM353 su- 1 4:09.20Serravalle
200804/07PESM8 se- 1 4:09.52Ponzano Veneto
201604/06PESM352 se- 2 4:09.79Ancona
201708/07PESM351 su- 1 4:09.80Orvieto
201005/06PESM5 su- 1 4:10.11Fano
200617/06PESM2 su- 1 4:10.56Fabriano
201226/08PESM5 su- 1 4:10.84Montecassiano
201414/07PESM352 su- 1 4:10.98Misano Adriatico
200503/09PESM1 se- 1 4:11.42Macerata
200605/02IESM7 se- 1 4:11.43 Ancona
201104/09PESM5 se- 1 4:11.71Copparo
200523/04PESM4 se- 1 4:11.75Ascoli Piceno
201531/01IESM354 se- 1 4:11.95Ancona
201512/08PESM356 ba- 1 4:12.08Lyon
201128/08PESM6 su- 1 4:12.41Montecassiano
201114/05PESM9 se- 1 4:12.86Macerata
201920/07PESM409 se- 2 4:13.03Ascoli Piceno
201929/06PESM409 se- 1 4:13.22Fiorano Modenese
201724/06PESM353 se- 1 4:13.40Macerata
201405/07PESM353 se- 2 4:13.73Modena
201428/06PESM354 se- 2 4:14.81Ancona
201729/07PESM354 ba- 2 4:14.98Aarhus
201715/07PESM353 su- 1 4:15.34Camerino
201906/07PESM403 su- 1 4:16.76Campi Bisenzio
201504/07PESM351 su- 1 4:17.43Cassino
201706/05PESM353 se- 1 4:18.29Ancona
201902/08PESM401 su- 1 4:18.70Torino
201306/07PESM10 se- 2 4:19.25Corridonia
201913/07PESM4010 se- 2 4:27.41Fermo
201905/09PESM407 ba- 1 4:27.80Jesolo-caorle-eraclea
 

MIGLIO

Anno Data Tipo Cr. Cat. Piazz. Prestaz. Vento Città  
200512/08PESM7 se- 1 4:31.09Recanati
 

2000 metri

Anno Data Tipo Cr. Cat. Piazz. Prestaz. Vento Città  
201805/09PESM355 se- 2 5:56.56Faenza
 

3000 metri

Anno Data Tipo Cr. Cat. Piazz. Prestaz. Vento Città  
201024/06PESM8 se- 1 8:35.84Ferrara
200923/06PESM8 se- 1 8:36.10Ferrara
201605/07PESM355 se- 1 8:43.35Ancona
201001/05PESM2 su- 1 8:46.89Voltabarozzo
200603/08PESM6 su- 1 8:47.33Nereto
200818/06PMSM3 su- 1 8:49.6Mogliano Veneto
201102/08PESM20 se- 1 8:51.91Trento
201525/04PESM353 se- 3 8:53.06Ascoli Piceno
201411/06PESM3516 se- 1 8:53.71Ancona
201527/02IESM352 su- 1 8:54.18Ancona
201208/09PESM7 su- 1 8:54.41Macerata
201531/07PESM352 se- 2 8:56.27Orvieto
201701/06PESM354 se- 1 8:59.18Ancona
201926/06PESM407 se- 1 8:59.87Ancona
201504/02IESM353 se- 1 9:00.36Ancona
201630/03IESM357 su- 1 9:01.55Ancona
201313/07PESM10 se- 2 9:03.05Ascoli Piceno
201426/07PESM352 se- 2 9:03.29Ascoli Piceno
202005/09PESM404 se- 1 9:05.22Macerata
201626/02IESM352 su- 1 9:08.10Ancona
200805/01IESM5 su- 1 9:09.71Padova
201225/08PESM1 se- 1 9:09.93Camerino
201919/01IESM406 su- 1 9:11.42Ancona
201922/02IESM403 su- 1 9:12.73Ancona
202005/08PESM403 se- 2 9:12.89Ancona
201819/07PESM355 se- 2 9:13.94Imola
201019/09PESM8 se- 2 9:15.24Osimo
201302/02IESM8 se- 1 9:16.01Ancona
201926/05PESM401 su- 1 9:18.66Macerata
 

5000 metri

Anno Data Tipo Cr. Cat. Piazz. Prestaz. Vento Città  
200902/06PESM2 su- 1 15:28.85San Benedetto Del Tronto
201622/07PESM357 se- 1 15:32.31Recanati
201608/05PESM357 se- 2 15:38.62Fermo
201216/09PESM5 su- 1 15:43.27Ancona
201115/09PESM2 su- 1 15:47.51Brescia
201912/05PESM405 su- 1 15:51.10Macerata
202009/10PESM405 se- 2 16:14.22Arezzo
201411/05PESM359 su- 1 16:15.24Macerata
202008/08PESM404 su- 1 16:21.72Fermo
201302/07PESM15 se- 1 16:30.11Ancona
201809/09PESM352 su- 1 16:31.13Montecassiano
201807/07PESM352 su- 1 16:36.62Ancona
202001/09PESM403 se- 2 17:11.09Ancona
 

10000 metri

Anno Data Tipo Cr. Cat. Piazz. Prestaz. Vento Città  
201123/04PESM1 se- 1 32:13.31Terni
201512/04PESM358 se- 1 32:40.44Sanelpidio A Mare
201616/04PESM359 se- 2 32:45.07Osimo
201723/04PESM357 se- 2 32:47.05Rubiera
201320/04PESM12 se- 1 33:02.79Giulianova
201913/04PESM4012 se- 3 33:11.81Tolentino
200826/04PMSM11 su- 1 33:16.1Giulianova
201628/05PESM353 su- 1 33:50.97L'aquila
201214/04PESM17 se- 1 33:55.47Recanati
 

Corsa strada Km 10

Anno Data Tipo Cr. Cat. Piazz. Prestaz. Vento Città  
201230/09SMSM52 su- 1 33:48Scicli
201610/09SMSM3578 su- 1 34:25Foligno
201402/08SMSM3510 su- 1 34:47Isernia
 

MARATONINA A

Anno Data Tipo Cr. Cat. Piazz. Prestaz. Vento Città  
201116/10SMSM102 su- 1 1h12:02Cremona
201606/03SMSM3511 su- 1 1h12:19Fucecchio
 

3000 siepi H91

Anno Data Tipo Cr. Cat. Piazz. Prestaz. Vento Città  
201515/08PESM355 se- 1 10:41.60Lyon
201109/07PESM4 su- 1 10:47.65Fabriano
 

Attenzione: le schede-atleti sono composte automaticamente sulla base dei dati inseriti all'interno degli archivi nazionali aggiornati dal 2005 al 04-12-2020. Se un risultato non compare nelle graduatorie, quindi, è segno che lo stesso, con ogni probabilità, non è stato ancora inserito. Il processo di inserimento è di competenza dei Comitati Regionali sul cui territorio ha avuto luogo la manifestazione: eventuali segnalazioni per errori od omissioni, vanno dunque indirizzate agli stessi (potete utilizzare l'elenco con relativi contatti). Considerato però che solo le principali manifestazioni nazionali sono oggetto di inserimenti "in diretta" (sul posto di gara), mentre le altre, incluse le internazionali in programma all'estero, vengono inserite in tempi successivi, è opportuno attendere un ragionevole lasso di tempo prima di procedere ad una segnalazione.

Stickers


Non ventosi

GaraTipoPrestazioneVentoAnnoCittà
400 metriPista 57.812014Ancona
800 metriPista 1:59.522006Fabriano
800 metriIndoor 2:04.722015Ancona
1500 metriPista 4:00.312009Porto San Elpidio
1500 metriIndoor 4:11.432006 Ancona
MIGLIOPista 4:31.092005Recanati
2000 metriPista 5:56.562018Faenza
3000 metriPista 8:35.842010Ferrara
3000 metriIndoor 8:54.182015Ancona
5000 metriPista 15:28.852009San Benedetto Del Tronto
10000 metriPista 32:13.312011Terni
Corsa strada Km 10Strada 33:482012Scicli
MARATONINA AStrada 1h12:022011Cremona
3000 siepi H91Pista 10:41.602015Lyon

AnnoTipo mov.CategoriaSocietà
2020RinnovoSeniores 40 MaschileC.U.S. CAMERINO
2019RinnovoSeniores 40 MaschileC.U.S. CAMERINO A.S.D.
2018RinnovoSeniores 35 MaschileC.U.S. CAMERINO A.S.D.
2017RinnovoSeniores 35 MaschileC.U.S. CAMERINO A.S.D.
2016RinnovoSeniores 35 MaschileC.U.S. CAMERINO A.S.D.
2015RinnovoSeniores 35 MaschileC.U.S. CAMERINO A.S.D.
2014RinnovoSeniores 35 MaschileC.U.S. CAMERINO A.S.D.
2013TrasferimentoSeniores MaschileC.U.S. CAMERINO A.S.D.
2012RinnovoSeniores MaschileATL. RECANATI
2011TrasferimentoSeniores MaschileATL. RECANATI
2010RinnovoSeniores MaschileC.U.S. CAMERINO A.S.D.
2009RinnovoSeniores MaschileC.U.S. CAMERINO A.S.D.
2008RinnovoSeniores MaschileC.U.S. CAMERINO A.S.D.
2007RinnovoSeniores MaschileC.U.S. CAMERINO A.S.D.
2006TrasferimentoSeniores MaschileC.U.S. CAMERINO A.S.D.
2005RinnovoSeniores MaschileA.S.ATL. MEZZOFONDO RECANATI
2004TrasferimentoSeniores MaschileA.S.ATL. MEZZOFONDO RECANATI
2003TrasferimentoSeniores MaschileA.S.ATL. MONTEGRANARO
2002RinnovoSeniores MaschileATL. AVIS MACERATA
2001RinnovoPromesse MaschileATL. AVIS MACERATA
2000RinnovoPromesse MaschileATL. AVIS MACERATA
1999RinnovoPromesse MaschileATL. AVIS MACERATA
1998RinnovoJuniores MaschileATL. TOLENTINO